Estación de San Diego

Ultimos registro cada 15 minutos 48
Estación Fecha / Hora Temperatura Humedad Lluvia Velocidad Dirección Radiación Presion
48 San Diego 04-05-2026 11:45 20,1 44 0 1,3 183 534 1015,4
47 San Diego 04-05-2026 11:30 19,1 47 0 0,4 88 448 1015,4
46 San Diego 04-05-2026 11:15 18,6 47 0 0 343 329 1015,7
45 San Diego 04-05-2026 11:00 17,1 50 0 0 280 577 1016
44 San Diego 04-05-2026 10:45 16,1 56 0 1,3 174 554 1016,1
43 San Diego 04-05-2026 10:30 14,5 63 0 0 326 353 1016,3
42 San Diego 04-05-2026 10:15 13,1 68 0 0,9 343 410 1016,2
41 San Diego 04-05-2026 10:00 11,7 69 0 0 354 369 1016,2
40 San Diego 04-05-2026 09:45 10,6 73 0 0,9 355 302 1016,2
39 San Diego 04-05-2026 09:30 9,2 81 0 0,4 294 230 1016,3
38 San Diego 04-05-2026 09:15 7,4 86 0 0 336 287 1016,1
37 San Diego 04-05-2026 09:00 5,7 91 0 0,9 347 250 1016,1
36 San Diego 04-05-2026 08:45 4,5 92 0 0 303 69 1016
35 San Diego 04-05-2026 08:30 3,7 91 0 0 268 35 1015,7
34 San Diego 04-05-2026 08:15 3,4 91 0 0 164 25 1015,8
33 San Diego 04-05-2026 08:00 3,3 91 0 0 164 18 1015,7
32 San Diego 04-05-2026 07:45 3,3 91 0 0 307 11 1015,7
31 San Diego 04-05-2026 07:30 3,3 90 0 0 307 5 1015,6
30 San Diego 04-05-2026 07:15 3,4 90 0 0 307 0 1015,5
29 San Diego 04-05-2026 07:00 3,7 89 0 0 307 0 1015,4
28 San Diego 04-05-2026 06:45 3,6 90 0 0 293 0 1015,3
27 San Diego 04-05-2026 06:30 3,5 90 0 0 286 0 1015,2
26 San Diego 04-05-2026 06:15 3,5 91 0 0 325 0 1015,2
25 San Diego 04-05-2026 06:00 3,3 91 0 0 297 0 1015
24 San Diego 04-05-2026 05:45 3,2 91 0 0 290 0 1015
23 San Diego 04-05-2026 05:30 3,3 90 0 0 339 0 1014,8
22 San Diego 04-05-2026 05:15 3,3 91 0 0 296 0 1014,9
21 San Diego 04-05-2026 05:00 3,2 90 0 0 297 0 1015
20 San Diego 04-05-2026 04:45 3,4 90 0 0 341 0 1015
19 San Diego 04-05-2026 04:30 3,5 90 0 0 341 0 1014,9
18 San Diego 04-05-2026 04:15 3,7 89 0 0 341 0 1014,9
17 San Diego 04-05-2026 04:00 3,9 89 0 0 341 0 1014,8
16 San Diego 04-05-2026 03:45 4,1 88 0 0 341 0 1015
15 San Diego 04-05-2026 03:30 4,5 88 0 0 339 0 1015,2
14 San Diego 04-05-2026 03:15 4,6 88 0 0 297 0 1015,3
13 San Diego 04-05-2026 03:00 4,5 88 0 0 297 0 1015,5
12 San Diego 04-05-2026 02:45 4,8 88 0 0,4 306 0 1015,6
11 San Diego 04-05-2026 02:30 4,6 89 0 0 274 0 1015,8
10 San Diego 04-05-2026 02:15 4,3 88 0 0 314 0 1015,8
9 San Diego 04-05-2026 02:00 4,4 88 0 0 314 0 1016
8 San Diego 04-05-2026 01:45 4,4 88 0 0 314 0 1015,9
7 San Diego 04-05-2026 01:30 4,7 88 0 0 315 0 1016
6 San Diego 04-05-2026 01:15 4,6 87 0 0 315 0 1016,2
5 San Diego 04-05-2026 01:00 4,8 87 0 0 315 0 1016,4
4 San Diego 04-05-2026 00:45 5,1 87 0 0 315 0 1016,6
3 San Diego 04-05-2026 00:30 5,6 87 0 0 320 0 1016,9
2 San Diego 04-05-2026 00:15 5,8 85 0 0 320 0 1016,9
1 San Diego 04-05-2026 00:00 6,2 84 0 0 320 0 1016,7